TimePDT,TemperatureF,Dew PointF,Humidity,Sea Level PressureIn,VisibilityMPH,Wind Direction,Wind SpeedMPH,Gust SpeedMPH,PrecipitationIn,Events,Conditions,WindDirDegrees,DateUTC
12:15 AM,57.2,51.8,82,30.21,10.0,WNW,3.5,-,N/A,,Clear,300,2013-07-18 07:15:00
12:35 AM,57.2,51.8,82,30.21,10.0,NNE,3.5,-,N/A,,Clear,20,2013-07-18 07:35:00
12:55 AM,57.2,51.8,82,30.21,10.0,Calm,Calm,-,N/A,,Clear,0,2013-07-18 07:55:00
1:15 AM,55.4,51.8,88,30.21,10.0,NW,3.5,-,N/A,,Clear,310,2013-07-18 08:15:00
1:35 AM,57.2,51.8,82,30.21,10.0,North,4.6,-,N/A,,Clear,350,2013-07-18 08:35:00
1:55 AM,57.2,50.0,77,30.21,10.0,NW,4.6,-,N/A,,Clear,320,2013-07-18 08:55:00
2:15 AM,57.2,50.0,77,30.21,10.0,NNW,5.8,-,N/A,,Clear,330,2013-07-18 09:15:00
2:35 AM,57.2,50.0,77,30.21,10.0,NNW,5.8,-,N/A,,Partly Cloudy,330,2013-07-18 09:35:00
2:55 AM,57.2,50.0,77,30.21,10.0,NNW,6.9,-,N/A,,Mostly Cloudy,330,2013-07-18 09:55:00
3:15 AM,57.2,50.0,77,30.21,10.0,NNW,9.2,-,N/A,,Overcast,330,2013-07-18 10:15:00
3:35 AM,57.2,50.0,77,30.21,10.0,NNW,5.8,-,N/A,,Overcast,340,2013-07-18 10:35:00
3:55 AM,57.2,50.0,77,30.20,10.0,NNW,6.9,-,N/A,,Overcast,340,2013-07-18 10:55:00
4:15 AM,57.2,50.0,77,30.20,10.0,NW,6.9,-,N/A,,Overcast,320,2013-07-18 11:15:00
4:35 AM,57.2,50.0,77,30.21,10.0,NNW,5.8,-,N/A,,Overcast,330,2013-07-18 11:35:00
4:55 AM,57.2,48.2,72,30.21,10.0,NNW,4.6,-,N/A,,Overcast,340,2013-07-18 11:55:00
5:15 AM,57.2,48.2,72,30.21,10.0,North,4.6,-,N/A,,Overcast,10,2013-07-18 12:15:00
5:35 AM,57.2,48.2,72,30.21,10.0,North,6.9,-,N/A,,Overcast,350,2013-07-18 12:35:00
5:55 AM,57.2,48.2,72,30.22,10.0,NNW,6.9,-,N/A,,Overcast,330,2013-07-18 12:55:00
6:15 AM,57.2,48.2,72,30.22,10.0,North,5.8,-,N/A,,Overcast,360,2013-07-18 13:15:00
6:35 AM,57.2,48.2,72,30.23,10.0,NNW,5.8,-,N/A,,Overcast,330,2013-07-18 13:35:00
6:55 AM,57.2,48.2,72,30.23,10.0,NW,4.6,-,N/A,,Overcast,310,2013-07-18 13:55:00
7:15 AM,57.2,48.2,72,30.23,10.0,NNW,5.8,-,N/A,,Overcast,330,2013-07-18 14:15:00
7:35 AM,59.0,50.0,72,30.23,10.0,NW,4.6,-,N/A,,Overcast,320,2013-07-18 14:35:00
7:55 AM,59.0,48.2,67,30.23,10.0,NW,5.8,-,N/A,,Overcast,320,2013-07-18 14:55:00
8:15 AM,59.0,48.2,67,30.22,10.0,NNW,8.1,-,N/A,,Overcast,340,2013-07-18 15:15:00
8:35 AM,60.8,48.2,63,30.23,10.0,NNW,6.9,-,N/A,,Overcast,340,2013-07-18 15:35:00
8:55 AM,60.8,50.0,68,30.23,10.0,North,5.8,-,N/A,,Overcast,350,2013-07-18 15:55:00
9:35 AM,60.8,48.2,63,30.23,10.0,Calm,Calm,-,N/A,,Overcast,0,2013-07-18 16:35:00
9:55 AM,60.8,50.0,68,30.22,10.0,Calm,Calm,-,N/A,,Overcast,0,2013-07-18 16:55:00
10:15 AM,60.8,50.0,68,30.22,10.0,Calm,Calm,-,0.04,,Overcast,0,2013-07-18 17:15:00
10:35 AM,60.8,50.0,68,30.22,10.0,Calm,Calm,-,0.04,,Overcast,0,2013-07-18 17:35:00
10:55 AM,62.6,50.0,63,30.22,10.0,Calm,Calm,-,0.04,,Overcast,0,2013-07-18 17:55:00
11:55 AM,64.4,51.8,64,30.24,10.0,NNE,9.2,90.9,N/A,,Unknown,20,2013-07-18 18:55:00
12:15 PM,64.4,51.8,64,30.24,10.0,North,8.1,-,N/A,,Overcast,10,2013-07-18 19:15:00
12:35 PM,64.4,51.8,64,30.23,10.0,North,10.4,-,N/A,,Overcast,350,2013-07-18 19:35:00
12:55 PM,66.2,51.8,60,30.23,10.0,North,6.9,-,N/A,,Mostly Cloudy,360,2013-07-18 19:55:00
1:15 PM,68.0,53.6,60,30.23,10.0,NNW,10.4,16.1,N/A,,Partly Cloudy,330,2013-07-18 20:15:00
1:35 PM,68.0,53.6,60,30.22,10.0,NNW,8.1,-,N/A,,Clear,330,2013-07-18 20:35:00
1:55 PM,69.8,53.6,56,30.22,10.0,North,8.1,-,N/A,,Clear,10,2013-07-18 20:55:00
2:15 PM,71.6,53.6,53,30.21,10.0,NNW,12.7,16.1,N/A,,Clear,340,2013-07-18 21:15:00
2:35 PM,71.6,55.4,57,30.20,10.0,NNW,10.4,-,N/A,,Clear,340,2013-07-18 21:35:00
2:55 PM,73.4,55.4,53,30.19,10.0,North,11.5,16.1,N/A,,Clear,360,2013-07-18 21:55:00
3:15 PM,75.2,55.4,50,30.18,10.0,North,9.2,-,N/A,,Clear,360,2013-07-18 22:15:00
3:35 PM,75.2,55.4,50,30.18,10.0,North,10.4,-,N/A,,Clear,350,2013-07-18 22:35:00
3:55 PM,75.2,55.4,50,30.17,10.0,NNW,9.2,16.1,N/A,,Clear,340,2013-07-18 22:55:00
4:15 PM,77.0,55.4,47,30.16,10.0,North,9.2,-,N/A,,Clear,360,2013-07-18 23:15:00
4:35 PM,77.0,55.4,47,30.16,10.0,NNW,12.7,-,N/A,,Clear,340,2013-07-18 23:35:00
4:55 PM,78.8,55.4,44,30.16,10.0,North,8.1,17.3,N/A,,Clear,350,2013-07-18 23:55:00
5:15 PM,78.8,55.4,44,30.15,10.0,NNE,6.9,-,N/A,,Clear,20,2013-07-19 00:15:00
5:35 PM,78.8,55.4,44,30.15,10.0,North,9.2,-,N/A,,Clear,350,2013-07-19 00:35:00
5:55 PM,78.8,57.2,47,30.14,10.0,NNW,6.9,-,N/A,,Clear,330,2013-07-19 00:55:00
6:15 PM,77.0,57.2,50,30.14,10.0,West,6.9,-,N/A,,Clear,280,2013-07-19 01:15:00
6:35 PM,77.0,57.2,50,30.13,10.0,West,5.8,-,N/A,,Clear,280,2013-07-19 01:35:00
6:55 PM,75.2,57.2,53,30.13,10.0,West,5.8,-,N/A,,Clear,270,2013-07-19 01:55:00
7:15 PM,73.4,57.2,57,30.13,10.0,West,4.6,-,N/A,,Clear,280,2013-07-19 02:15:00
7:35 PM,73.4,57.2,57,30.14,10.0,West,5.8,-,N/A,,Clear,280,2013-07-19 02:35:00
7:55 PM,71.6,55.4,57,30.14,10.0,WNW,4.6,-,N/A,,Clear,290,2013-07-19 02:55:00
8:15 PM,69.8,55.4,60,30.14,10.0,WNW,6.9,-,N/A,,Clear,290,2013-07-19 03:15:00
8:35 PM,68.0,53.6,60,30.14,10.0,WNW,5.8,-,N/A,,Clear,290,2013-07-19 03:35:00
8:55 PM,66.2,53.6,64,30.15,10.0,NW,5.8,-,N/A,,Clear,310,2013-07-19 03:55:00
9:15 PM,66.2,53.6,64,30.15,10.0,WNW,8.1,-,N/A,,Clear,300,2013-07-19 04:15:00
9:35 PM,64.4,51.8,64,30.15,10.0,NW,5.8,-,N/A,,Clear,310,2013-07-19 04:35:00
9:55 PM,64.4,51.8,64,30.16,10.0,North,-9999.0,-,N/A,,Clear,0,2013-07-19 04:55:00
10:15 PM,62.6,51.8,68,30.17,10.0,Calm,Calm,-,N/A,,Clear,0,2013-07-19 05:15:00
10:35 PM,62.6,51.8,68,30.17,10.0,NNW,3.5,-,N/A,,Clear,340,2013-07-19 05:35:00
10:55 PM,62.6,51.8,68,30.17,10.0,Calm,Calm,-,N/A,,Clear,0,2013-07-19 05:55:00
11:15 PM,60.8,51.8,72,30.17,10.0,NNW,3.5,-,N/A,,Clear,330,2013-07-19 06:15:00
11:35 PM,60.8,51.8,72,30.18,10.0,Calm,Calm,-,N/A,,Clear,0,2013-07-19 06:35:00
11:55 PM,59.0,51.8,77,30.18,10.0,Calm,Calm,-,N/A,,Clear,0,2013-07-19 06:55:00